Regional Weather Roundup
Issued by NWS Newport/Morehead, NC

Current Version | Previous Version | Graphics & Text | Print | Product List | Glossary Off
Versions: 1 2 3 4 5 6 7 8 9 10 11 12 13 14 15 16 17 18 19 20 21 22 23 24 25 26 27 28 29 30 31 32 33 34 35 36 37 38 39 40 41 42 43 44 45 46 47 48 49 50

000
ASUS42 KMHX 131922
RWRMHX
WEATHER ROUNDUP FOR EASTERN NORTH CAROLINA
NATIONAL WEATHER SERVICE NEWPORT/MOREHEAD CITY NC
300 PM EDT SUN JUL 13 2014

NOTE: "FAIR" INDICATES FEW OR NO CLOUDS BELOW 12,000 FEET
WITH NO SIGNIFICANT WEATHER AND/OR OBSTRUCTIONS TO VISIBILITY

NCZ015>017-031-032-045>047-102-103-132000-
NORTH COAST

CITY           SKY/WX    TMP DP  RH WIND       PRES   REMARKS
EDENTON        SUNNY     88  73  61 S9        30.07F
ELIZABETH CITY MOSUNNY   87  71  58 S9        30.08F
KITTY HAWK     CLEAR     83  72  69 SE8       30.10S
MANTEO         NOT AVBL

$$

NCZ045>047-081-094-103-104-132000-
CENTRAL COAST

CITY           SKY/WX    TMP DP  RH WIND       PRES   REMARKS
FRISCO         SUNNY     87  71  58 S7        30.13F
SWANQUARTER      N/A     88 N/A N/A SE8       30.06F

$$

NCZ095-097-098-100-101-132000-
SOUTHERN COAST

CITY           SKY/WX    TMP DP  RH WIND       PRES   REMARKS
BEAUFORT       MOSUNNY   83  72  69 S10       30.11F
CEDAR ISLAND     N/A     86 N/A N/A SE10G18   30.15S
JACKSONVILLE   PTSUNNY   84  73  69 S13       30.10F
NEWPORT        NOT AVBL
PINEY ISLAND   MOCLDY    87  74  64 S9        30.10F
WILMINGTON     PTSUNNY   86  73  65 S12       30.11F


$$

NCZ011>013-027>030-043-044-078>080-089-090>093-098-132000-
COASTAL PLAIN

CITY           SKY/WX    TMP DP  RH WIND       PRES   REMARKS
AHOSKIE        SUNNY     88  69  53 S3        30.08F
CLINTON        MOSUNNY   88  73  61 S3        30.10F
ELIZABETHTOWN  MOSUNNY   89  69  51 SW8       30.09F
GOLDSBORO      MOSUNNY   89  74  60 SW6       30.07F
GREENVILLE     MOSUNNY   88  70  55 SW7       30.10F
HAVELOCK       PTSUNNY   86  72  62 SW10      30.11F
KENANSVILLE    MOSUNNY   88  68  51 S6        30.10F
KINSTON        MOSUNNY   90  70  51 SW7       30.10F
NEW BERN       PTSUNNY   92  69  47 SW9       30.10F
RICHLANDS      MOSUNNY   91  70  49 SW9       30.09F
ROANOKE RAPIDS NOT AVBL
ROCKY MOUNT    MOSUNNY   91  70  49 SW7       30.08F
WASHINGTON     MOSUNNY   86  67  52 S6        30.09F
WHITEVILLE     PTSUNNY   87  72  61 S6        30.10S

$$

AMZ130-135-150-152-154-156-158-170-250-252-270-ANZ085-086-088-633-658-670-132000-
MARINE OBSERVATIONS

STATION/POSITION TIME  TEMP    WIND        PRES    WAVE   SWELL
                       AIR SEA DIR/SP/G            HT/PER HT/PER
                 (UTC) (F)     (DEG/KT/KT) (MB)    (FT/S) (FT/S)
CHESAPEAKE LIGHT NOT AVBL
BUOY 44014       1900   76 78  160/ 10/ 12 1019.4    2/ 7   2/ 7
DUCK             1900   78 74  140/ 18/ 19 1018.3
2E DUCK          1900                        N/A     2/ 3
OREGON INLET     1900   82 79  160/  9/ 13 1019.7
BUOY 44095       1900      77                N/A     2/ 7
HATTERAS CG      1900   82 82  160/  6/  7 1020.4
DIAMOND BUOY     1900          VRB  4/  6  1020.1    2/ 7   2/ 7
17S OCRACOKE INL NOT AVBL
CAPE LOOKOUT     1900   81     170/  9/ 12 1019.8
BEAUFORT LAB     1900   81 83  180/ 11/ 14 1019.3
30 SE NEW RIVER  1900   81 84  190/  6/  8 1020.5    2/ 8   2/ 8
5 SE WRIGHTSVILL 1900   78 83  190/ 12/ 14 1020.4
FRYING PAN BUOY  NOT AVBL
BUOY 41001       NOT AVBL
BUOY 41002       1836   82 86  240/  2/  2 1021.8    2/ 9   2/ 9
BUOY 41004       1900   78 82  200/  4/  4 1019.8    2/ 8   2/ 8

$$



USA.gov is the U.S. government's official web portal to all federal, state and local government web resources and services.